D8954 Weather Reports


Display with metric or nautical units.
time (UTC)temp
F
wind
direction
speed
MPH
gust
MPH
rain 1hr
in
rain 24hr
in
rain mn
in
humidity
%
barometer
mb
20260906194004 63 200 0.0 2.0 0.00 0.00 0.00 55 1024.2
20260906193504 63 200 1.0 2.0 0.00 0.00 0.00 54 1024.2
20260906193004 63 198 1.0 2.0 0.00 0.00 0.00 53 1024.3
20260906192504 63 197 0.0 1.0 0.00 0.00 0.00 53 1024.2
20260906192004 63 197 1.0 2.0 0.00 0.00 0.00 53 1024.2
20260906191504 64 197 0.0 2.0 0.00 0.00 0.00 52 1024.1
20260906191005 64 197 1.0 2.0 0.00 0.00 0.00 52 1024.2
20260906190504 64 197 0.0 2.0 0.00 0.00 0.00 52 1024.1
20260906190004 64 196 1.0 2.0 0.00 0.00 0.00 52 1024.2
20260906185504 64 196 1.0 2.0 0.00 0.00 0.00 52 1024.1
20260906185005 64 194 2.0 2.0 0.00 0.00 0.00 52 1024.3
20260906184505 64 179 1.0 2.0 0.00 0.00 0.00 53 1024.2
20260906184005 64 178 1.0 1.0 0.00 0.00 0.00 52 1024.0
20260906183504 64 176 1.0 2.0 0.00 0.00 0.00 53 1024.1
20260906183004 64 173 1.0 2.0 0.00 0.00 0.00 52 1024.1
20260906182004 64 169 1.0 2.0 0.00 0.00 0.00 53 1024.1
20260906181505 64 169 1.0 3.0 0.00 0.00 0.00 52 1024.1
20260906181005 64 146 1.0 1.0 0.00 0.00 0.00 53 1024.1
20260906180504 65 145 1.0 2.0 0.00 0.00 0.00 51 1024.0
20260906175504 66 145 0.0 1.0 0.00 0.00 0.00 50 1024.1
20260906175004 66 145 0.0 1.0 0.00 0.00 0.00 51 1024.2
20260906174505 66 144 0.0 1.0 0.00 0.00 0.00 50 1024.0
20260906174004 67 144 0.0 2.0 0.00 0.00 0.00 49 1024.2
20260906173504 67 143 0.0 2.0 0.00 0.00 0.00 48 1024.1
20260906172004 68 135 1.0 3.0 0.00 0.00 0.00 48 1024.1
20260906171504 69 137 1.0 2.0 0.00 0.00 0.00 47 1024.2
20260906171005 69 130 2.0 3.0 0.00 0.00 0.00 47 1024.2
20260906170504 69 116 2.0 3.0 0.00 0.00 0.00 45 1024.3
20260906170004 70 101 2.0 8.0 0.00 0.00 0.00 45 1024.3
20260906164504 70 103 2.0 3.0 0.00 0.00 0.00 44 1024.5
20260906164004 70 90 2.0 7.0 0.00 0.00 0.00 45 1024.4
20260906163504 70 72 2.0 7.0 0.00 0.00 0.00 44 1024.3
20260906163004 70 69 3.0 9.0 0.00 0.00 0.00 44 1024.2
20260906162504 70 51 3.0 5.0 0.00 0.00 0.00 44 1024.3
20260906162004 71 56 4.0 8.0 0.00 0.00 0.00 43 1024.1
20260906161504 71 56 3.0 6.0 0.00 0.00 0.00 43 1024.2
20260906161005 71 119 3.0 8.0 0.00 0.00 0.00 43 1024.3
20260906160504 71 63 1.0 3.0 0.00 0.00 0.00 44 1024.4
20260906155504 71 56 3.0 9.0 0.00 0.00 0.00 42 1024.5
20260906155004 71 77 5.0 9.0 0.00 0.00 0.00 42 1024.5
20260906154504 71 89 3.0 8.0 0.00 0.00 0.00 42 1024.6
20260906154004 71 60 3.0 6.0 0.00 0.00 0.00 42 1024.6
20260906153004 72 51 5.0 8.0 0.00 0.00 0.00 42 1024.5
20260906152504 72 84 3.0 8.0 0.00 0.00 0.00 43 1024.6
20260906152004 72 87 3.0 3.0 0.00 0.00 0.00 42 1024.7
20260906151504 72 101 4.0 7.0 0.00 0.00 0.00 42 1024.7
20260906151005 72 84 4.0 9.0 0.00 0.00 0.00 43 1024.7
20260906150504 72 61 5.0 9.0 0.00 0.00 0.00 42 1024.7
20260906145004 71 61 3.0 8.0 0.00 0.00 0.00 42 1025.0
20260906144504 72 97 5.0 10.0 0.00 0.00 0.00 42 1024.9
20260906144004 72 72 4.0 9.0 0.00 0.00 0.00 42 1025.0
20260906143504 72 79 7.0 12.0 0.00 0.00 0.00 42 1025.0
20260906142503 72 71 3.0 7.0 0.00 0.00 0.00 42 1025.1
20260906142004 72 60 3.0 6.0 0.00 0.00 0.00 42 1025.2
20260906141504 72 105 5.0 9.0 0.00 0.00 0.00 42 1025.1
20260906141005 73 145 5.0 10.0 0.00 0.00 0.00 41 1025.3
20260906140504 73 106 2.0 9.0 0.00 0.00 0.00 40 1025.2
20260906135505 73 68 2.0 8.0 0.00 0.00 0.00 39 1025.3
20260906135004 74 69 2.0 6.0 0.00 0.00 0.00 42 1025.4
20260906134504 73 61 3.0 6.0 0.00 0.00 0.00 41 1025.4
20260906134004 74 141 3.0 8.0 0.00 0.00 0.00 40 1025.5
20260906133503 74 147 1.0 3.0 0.00 0.00 0.00 42 1025.4
20260906133004 74 140 2.0 5.0 0.00 0.00 0.00 41 1025.5
20260906132504 73 73 3.0 7.0 0.00 0.00 0.00 41 1025.5
20260906132004 73 112 3.0 7.0 0.00 0.00 0.00 40 1025.6
20260906131504 74 123 1.0 8.0 0.00 0.00 0.00 41 1025.8
20260906131005 74 125 2.0 7.0 0.00 0.00 0.00 42 1025.8
20260906130004 73 49 2.0 5.0 0.00 0.00 0.00 42 1025.9
20260906125004 73 48 4.0 7.0 0.00 0.00 0.00 41 1026.0
20260906124004 72 228 2.0 5.0 0.00 0.00 0.00 40 1026.2
20260906123005 71 199 5.0 7.0 0.00 0.00 0.00 42 1026.2
20260906122504 71 192 2.0 3.0 0.00 0.00 0.00 41 1026.1
20260906122004 72 207 3.0 6.0 0.00 0.00 0.00 40 1026.1
20260906121504 71 143 1.0 7.0 0.00 0.00 0.00 41 1026.2
20260906121004 72 148 1.0 3.0 0.00 0.00 0.00 42 1026.2
20260906120004 71 45 4.0 8.0 0.00 0.00 0.00 42 1026.5
20260906115504 70 103 1.0 2.0 0.00 0.00 0.00 42 1026.4
20260906115004 71 204 2.0 5.0 0.00 0.00 0.00 41 1026.5
20260906114504 71 173 2.0 5.0 0.00 0.00 0.00 44 1026.5
20260906114004 70 172 5.0 8.0 0.00 0.00 0.00 43 1026.6
20260906112504 69 108 1.0 3.0 0.00 0.00 0.00 45 1026.7
20260906111504 69 48 1.0 3.0 0.00 0.00 0.00 45 1026.8
20260906110504 69 82 2.0 7.0 0.00 0.00 0.00 47 1026.7
20260906110004 69 125 3.0 7.0 0.00 0.00 0.00 46 1026.7
20260906105504 69 124 3.0 8.0 0.00 0.00 0.00 48 1026.7
20260906105003 68 191 0.0 3.0 0.00 0.00 0.00 48 1026.7
20260906104504 68 100 3.0 6.0 0.00 0.00 0.00 48 1026.9
20260906103504 68 126 1.0 6.0 0.00 0.00 0.00 48 1026.9
20260906102504 69 53 2.0 5.0 0.00 0.00 0.00 49 1026.9
20260906102004 68 52 3.0 5.0 0.00 0.00 0.00 50 1026.9
20260906101504 67 116 2.0 7.0 0.00 0.00 0.00 49 1027.0
20260906101004 67 131 2.0 9.0 0.00 0.00 0.00 50 1027.1
20260906100504 68 72 4.0 8.0 0.00 0.00 0.00 50 1027.1
20260906100004 67 178 4.0 9.0 0.00 0.00 0.00 53 1027.3
20260906095004 67 133 3.0 7.0 0.00 0.00 0.00 54 1027.5
20260906094004 67 35 5.0 7.0 0.00 0.00 0.00 56 1027.5
20260906093504 66 97 3.0 9.0 0.00 0.00 0.00 57 1027.5
20260906092504 65 117 1.0 9.0 0.00 0.00 0.00 58 1027.5
20260906091004 65 169 3.0 9.0 0.00 0.00 0.00 59 1027.6
20260906090504 64 167 2.0 3.0 0.00 0.00 0.00 59 1027.5
20260906090004 64 107 3.0 6.0 0.00 0.00 0.00 61 1027.6
20260906085503 64 177 2.0 6.0 0.00 0.00 0.00 58 1027.5
20260906085004 64 102 2.0 3.0 0.00 0.00 0.00 59 1027.6
20260906084504 63 103 2.0 8.0 0.00 0.00 0.00 59 1027.6
20260906083504 63 108 1.0 3.0 0.00 0.00 0.00 62 1027.6
20260906083004 63 142 3.0 8.0 0.00 0.00 0.00 62 1027.5
20260906082503 62 118 2.0 8.0 0.00 0.00 0.00 62 1027.5
20260906082004 62 53 4.0 8.0 0.00 0.00 0.00 62 1027.5
20260906081503 62 78 3.0 8.0 0.00 0.00 0.00 63 1027.6
20260906081005 62 62 3.0 5.0 0.00 0.00 0.00 63 1027.5
20260906080004 61 164 3.0 6.0 0.00 0.00 0.00 64 1027.7
20260906075504 61 94 3.0 5.0 0.00 0.00 0.00 65 1027.6
20260906075004 61 166 3.0 5.0 0.00 0.00 0.00 67 1027.5
20260906074503 61 138 1.0 3.0 0.00 0.00 0.00 66 1027.5
20260906074004 60 80 2.0 6.0 0.00 0.00 0.00 67 1027.5
20260906073503 60 119 3.0 7.0 0.00 0.00 0.00 67 1027.5
20260906073003 60 159 2.0 5.0 0.00 0.00 0.00 69 1027.6
20260906071504 59 135 2.0 5.0 0.00 0.00 0.00 71 1027.5
20260906071004 59 157 1.0 5.0 0.00 0.00 0.00 72 1027.6
20260906070504 59 142 2.0 3.0 0.00 0.00 0.00 74 1027.5
20260906070004 59 215 1.0 2.0 0.00 0.00 0.00 72 1027.6
20260906065503 59 279 1.0 2.0 0.00 0.00 0.00 74 1027.5
20260906065003 58 279 2.0 3.0 0.00 0.00 0.00 74 1027.5
20260906064504 58 279 1.0 2.0 0.00 0.00 0.00 74 1027.5
20260906064003 58 279 0.0 0.0 0.00 0.00 0.00 76 1027.6
20260906063503 57 279 0.0 0.0 0.00 0.00 0.00 76 1027.5
20260906063003 56 279 0.0 2.0 0.00 0.00 0.00 78 1027.6
20260906062503 56 279 1.0 2.0 0.00 0.00 0.00 79 1027.6
20260906062003 56 279 0.0 1.0 0.00 0.00 0.00 79 1027.6
20260906061504 56 279 0.0 0.0 0.00 0.00 0.00 81 1027.6
20260906061004 54 279 0.0 0.0 0.00 0.00 0.00 83 1027.5
20260906060504 53 279 0.0 0.0 0.00 0.00 0.00 83 1027.4
20260906060004 53 279 0.0 0.0 0.00 0.00 0.00 83 1027.4
20260906055504 53 279 0.0 1.0 0.00 0.00 0.00 85 1027.2
20260906055004 52 279 0.0 0.0 0.00 0.00 0.00 87 1027.2
20260906054504 51 279 0.0 1.0 0.00 0.00 0.00 86 1027.2
20260906054003 51 279 0.0 1.0 0.00 0.00 0.00 86 1027.1
20260906053004 50 279 0.0 1.0 0.00 0.00 0.00 87 1027.0
20260906052503 50 279 1.0 2.0 0.00 0.00 0.00 85 1026.9
20260906052003 50 279 1.0 2.0 0.00 0.00 0.00 86 1026.9
20260906051503 50 279 1.0 2.0 0.00 0.00 0.00 87 1026.9
20260906051004 49 279 0.0 2.0 0.00 0.00 0.00 86 1026.9
20260906050504 49 279 1.0 3.0 0.00 0.00 0.00 86 1026.9
20260906050005 49 279 3.0 3.0 0.00 0.00 0.00 86 1026.9
20260906045504 48 274 2.0 3.0 0.00 0.00 0.00 85 1026.9
20260906045005 49 269 3.0 3.0 0.00 0.00 0.00 86 1026.9
20260906044505 49 267 2.0 3.0 0.00 0.00 0.00 87 1026.9
20260906044005 49 267 1.0 2.0 0.00 0.00 0.00 86 1026.9
20260906043505 48 267 0.0 2.0 0.00 0.00 0.00 85 1027.0
20260906043005 49 267 1.0 2.0 0.00 0.00 0.00 86 1026.9
20260906042505 49 267 1.0 2.0 0.00 0.00 0.00 85 1027.0
20260906042005 49 267 2.0 3.0 0.00 0.00 0.00 86 1027.0
20260906041005 49 267 1.0 2.0 0.00 0.00 0.00 86 1027.0
20260906040505 49 267 0.0 2.0 0.00 0.00 0.00 85 1026.8
20260906040007 49 267 0.0 1.0 0.00 0.00 0.00 85 1026.8
20260906035504 49 267 1.0 2.0 0.00 0.00 0.00 84 1026.6
20260906035005 50 267 2.0 3.0 0.00 0.00 0.00 85 1026.7
20260906034504 50 267 2.0 2.0 0.00 0.00 0.00 85 1026.7
20260906034004 49 267 1.0 2.0 0.00 0.00 0.00 86 1026.7
20260906033504 49 267 1.0 1.0 0.00 0.00 0.00 85 1026.7
20260906033004 49 267 0.0 2.0 0.00 0.00 0.00 85 1026.8
20260906031007 50 267 2.0 3.0 0.00 0.00 0.00 83 1026.8
20260906030505 51 268 3.0 3.0 0.00 0.00 0.00 83 1026.8
20260906030004 51 275 3.0 6.0 0.00 0.00 0.00 84 1026.8
20260906025504 50 278 3.0 6.0 0.00 0.00 0.00 84 1026.8
20260906024005 50 281 2.0 6.0 0.00 0.00 0.00 84 1026.8
20260906023505 50 273 2.0 3.0 0.00 0.00 0.00 83 1026.8
20260906022505 50 275 1.0 2.0 0.00 0.00 0.00 84 1026.8
20260906022004 50 275 0.0 1.0 0.00 0.00 0.00 84 1026.6
20260906021504 50 275 1.0 3.0 0.00 0.00 0.00 83 1026.7
20260906021006 51 275 2.0 3.0 0.00 0.00 0.00 83 1026.7
20260906020004 50 275 1.0 3.0 0.00 0.00 0.00 83 1026.6
20260906015505 51 274 2.0 3.0 0.00 0.00 0.00 82 1026.6
20260906015005 51 278 1.0 2.0 0.00 0.00 0.00 83 1026.6
20260906013504 51 278 0.0 2.0 0.00 0.00 0.00 81 1026.6
20260906013005 52 278 1.0 3.0 0.00 0.00 0.00 81 1026.5
20260906012505 52 280 1.0 2.0 0.00 0.01 0.00 81 1026.6
20260906012005 52 282 0.0 0.0 0.00 0.01 0.00 82 1026.5
20260906011005 52 284 0.0 0.0 0.00 0.01 0.00 82 1026.5
20260906010504 52 284 0.0 0.0 0.00 0.01 0.00 81 1026.6
20260906010005 52 284 0.0 0.0 0.00 0.01 0.00 81 1026.5
20260906005504 52 284 1.0 3.0 0.00 0.01 0.00 81 1026.5
20260906005004 52 284 2.0 3.0 0.00 0.02 0.00 80 1026.4
20260906004504 53 283 2.0 3.0 0.00 0.02 0.00 80 1026.4
20260906004005 53 282 3.0 3.0 0.00 0.02 0.00 79 1026.4
20260906003505 53 286 2.0 3.0 0.00 0.02 0.00 80 1026.5
20260906003005 52 295 2.0 2.0 0.00 0.02 0.00 80 1026.5
20260906002005 52 296 2.0 3.0 0.00 0.02 0.00 80 1026.4
20260906001505 52 297 1.0 2.0 0.00 0.02 0.00 79 1026.3
20260906001005 53 298 2.0 3.0 0.00 0.02 0.00 79 1026.3
20260906000505 53 299 2.0 3.0 0.00 0.02 0.00 79 1026.3
20260905235505 53 280 3.0 3.0 0.00 0.02 0.00 79 1026.3
20260905234004 53 281 2.0 3.0 0.00 0.02 0.00 78 1026.4
20260905233504 53 281 2.0 2.0 0.00 0.02 0.00 78 1026.5
20260905233005 54 281 1.0 3.0 0.00 0.02 0.00 76 1026.4
20260905232505 54 281 3.0 3.0 0.00 0.02 0.00 76 1026.5
20260905232004 54 281 3.0 3.0 0.00 0.02 0.00 75 1026.4
20260905231005 55 280 2.0 3.0 0.00 0.02 0.00 74 1026.2
20260905230504 54 279 3.0 6.0 0.00 0.02 0.00 74 1026.1
20260905230005 55 286 2.0 3.0 0.00 0.02 0.00 73 1026.1
20260905225504 55 286 2.0 3.0 0.00 0.02 0.00 73 1026.1
20260905225005 55 287 2.0 3.0 0.00 0.02 0.00 73 1026.1
20260905224504 55 288 3.0 3.0 0.00 0.02 0.00 72 1025.9
20260905223504 56 304 2.0 3.0 0.00 0.02 0.00 70 1025.8
20260905223004 57 305 2.0 3.0 0.00 0.02 0.00 70 1025.8
20260905222504 57 306 1.0 3.0 0.00 0.02 0.00 70 1025.7
20260905222004 57 340 3.0 8.0 0.00 0.02 0.00 70 1025.6
20260905221504 58 296 2.0 3.0 0.00 0.02 0.00 69 1025.5
20260905221005 57 297 2.0 3.0 0.00 0.02 0.00 69 1025.4
20260905220504 57 312 2.0 3.0 0.00 0.02 0.00 69 1025.5
20260905220004 57 317 2.0 3.0 0.00 0.02 0.00 69 1025.5
20260905214504 56 285 3.0 3.0 0.00 0.02 0.02 71 1025.4
20260905214004 57 296 3.0 3.0 0.00 0.02 0.02 69 1025.4
20260905213504 58 296 2.0 3.0 0.00 0.02 0.02 68 1025.3
20260905213005 58 296 3.0 5.0 0.00 0.02 0.02 68 1025.3
20260905212505 58 302 1.0 2.0 0.00 0.02 0.02 68 1025.2
20260905211505 58 304 2.0 3.0 0.00 0.02 0.02 68 1025.2
20260905210004 59 296 2.0 3.0 0.00 0.02 0.02 67 1025.0
20260905205004 58 306 2.0 3.0 0.00 0.02 0.02 67 1025.0
20260905204504 58 325 2.0 3.0 0.00 0.02 0.02 68 1024.9
20260905204004 59 333 1.0 2.0 0.00 0.02 0.02 67 1024.9
20260905203504 59 333 1.0 2.0 0.00 0.02 0.02 67 1024.9
20260905203004 59 333 2.0 3.0 0.00 0.02 0.02 67 1024.9
20260905202505 59 349 3.0 5.0 0.00 0.02 0.02 67 1024.9
20260905202005 58 323 2.0 3.0 0.00 0.02 0.02 68 1024.8
20260905201004 59 318 2.0 3.0 0.00 0.02 0.02 67 1024.7
20260905200504 59 318 2.0 3.0 0.00 0.02 0.02 66 1024.5
20260905200005 60 318 2.0 3.0 0.00 0.02 0.02 65 1024.6
20260905195505 61 318 2.0 3.0 0.00 0.02 0.02 64 1024.5
20260905195004 61 314 2.0 3.0 0.00 0.02 0.02 64 1024.4